Simultaneous Nadir Overpasses (SNOs) Predictions

Prediction of SNOs between NOAA-20 and AQUA Satellite Orbit:

Table of predicted SNOs for the next 14.0 days since TLE Epoch: 1/25/2019
Index Date (NOAA-20) Time (NOAA-20) Lat,Lon (NOAA-20) SZA (NOAA-20 ) Date (AQUA) Time (AQUA) Lat,Lon (AQUA) SZA (AQUA ) Distance(km) Time Diff (sec)
1 01/26/2019 13:39:42 -75.01, 31.19 62.76 01/26/2019 13:40:51 -75.00, 31.13 62.80 1.89 69
2 01/26/2019 14:30:03 76.08,-158.12 115.99 01/26/2019 14:29:55 76.07,-158.15 116.00 0.88 8
3 01/29/2019 05:56:36 -75.15, 147.37 63.57 01/29/2019 05:57:18 -75.15, 147.42 63.62 1.32 42
4 01/29/2019 06:46:56 76.26, -41.72 115.12 01/29/2019 06:46:21 76.26, -41.67 115.14 1.51 35
5 01/31/2019 22:13:18 -75.80, -94.83 65.03 01/31/2019 22:13:34 -75.79, -94.89 65.03 1.69 16
6 01/31/2019 23:03:40 76.79, 76.06 113.76 01/31/2019 23:02:39 76.78, 75.97 113.84 2.45 61
7 02/03/2019 13:39:49 74.85,-149.26 115.36 02/03/2019 13:40:55 74.84,-149.27 115.31 0.20 66
8 02/03/2019 14:30:11 -75.98, 21.54 65.98 02/03/2019 14:30:00 -75.98, 21.56 65.97 0.77 11
9 02/06/2019 05:56:39 75.17, -32.55 114.21 02/06/2019 05:57:18 75.18, -32.50 114.17 1.61 39
10 02/06/2019 06:47:03 -76.20, 138.07 67.02 02/06/2019 06:46:25 -76.21, 138.17 67.01 2.88 38




NCC Satellite Simultaneous Nadir Overpasses (SNOs) Prediction Service
